Tracking 35048 objects as of 19-Aug-2026
HD Live streaming from Space Station
objects crossing your sky now

SL-6 DEB


SL-6 DEB is no longer on orbit


NORAD ID: 19725
Int'l Code: 1988-112H
Launch date: December 22, 1988
Source: Commonwealth of Independent States (former USSR) (CIS)
Launch site: PLESETSK MISSILE AND SPACE COMPLEX (PKMTR)
Decay date: 1989-01-03

Note: This is SATELLITE DEBRIS
Your satellite tracking list
Your tracking list is empty




NASA's NSSDC Master Catalog

Two Line Element Set (TLE):
1 19725U 88112  H 89002.04975660  .07108100 +37400-4 +11954-2 0  9997
2 19725 062.7864 214.6645 0059634 128.6805 235.6661 16.27195721001689
Source of the keplerian elements: AFSPC